QPF
0.06 0.07 0.07 0.05 0.04 0.03 0.04 0.06 0.06 0.07 0.05 0.03 0.01 0.00 0.01 0.01 0.01 0.00 0.01 0.01 0.00 0.00 0.00 0.00 0.00 0.01 0.01 0.01 0.01 0.00 0.00 0.00 0.00 0.00 0.00 0.00 0.00 0.00
0.08 0.09 0.08 0.07 0.06 0.04 0.04 0.06 0.06 0.06 0.05 0.02 0.01 0.01 0.01 0.01 0.01 0.01 0.01 0.02 0.01 0.01 0.01 0.01 0.01 0.01 0.01 0.01 0.00 0.00 0.00 0.00 0.00 0.00 0.00 0.00 0.00 0.00
0.09 0.11 0.09 0.09 0.08 0.06 0.04 0.04 0.04 0.05 0.06 0.02 0.02 0.01 0.01 0.01 0.01 0.01 0.01 0.01 0.01 0.01 0.01 0.01 0.01 0.01 0.01 0.00 0.00 0.00 0.00 0.00 0.00 0.00 0.00 0.00 0.00 0.00
0.16 0.16 0.14 0.11 0.09 0.07 0.06 0.04 0.03 0.04 0.05 0.04 0.02 0.02 0.02 0.01 0.02 0.01 0.01 0.00 0.00 0.01 0.01 0.01 0.01 0.00 0.00 0.00 0.00 0.00 0.00 0.00 0.00 0.00 0.00 0.00 0.00 0.00
0.19 0.16 0.14 0.12 0.10 0.08 0.07 0.06 0.04 0.03 0.03 0.03 0.03 0.03 0.03 0.02 0.03 0.02 0.01 0.01 0.00 0.00 0.00 0.00 0.01 0.01 0.01 0.00 0.00 0.00 0.00 0.00 0.00 0.00 0.00 0.00 0.00 0.00
0.14 0.12 0.11 0.11 0.10 0.09 0.09 0.07 0.06 0.05 0.04 0.05 0.05 0.04 0.03 0.03 0.03 0.03 0.02 0.01 0.01 0.00 0.01 0.01 0.01 0.01 0.01 0.00 0.00 0.00 0.00 0.00 0.00 0.00 0.00 0.00 0.00 0.00
0.12 0.10 0.07 0.07 0.09 0.09 0.08 0.08 0.08 0.07 0.06 0.06 0.06 0.05 0.05 0.06 0.04 0.03 0.02 0.02 0.02 0.01 0.01 0.01 0.01 0.01 0.01 0.01 0.01 0.01 0.00 0.00 0.00 0.00 0.00 0.00 0.00 0.00
0.12 0.10 0.07 0.06 0.07 0.06 0.05 0.05 0.06 0.07 0.07 0.07 0.06 0.06 0.06 0.05 0.05 0.05 0.04 0.05 0.04 0.03 0.03 0.03 0.02 0.02 0.02 0.02 0.02 0.01 0.01 0.01 0.01 0.01 0.01 0.01 0.00 0.00
0.12 0.11 0.09 0.06 0.07 0.06 0.06 0.05 0.03 0.04 0.05 0.06 0.06 0.06 0.07 0.07 0.06 0.05 0.05 0.05 0.05 0.04 0.05 0.04 0.03 0.03 0.02 0.02 0.03 0.02 0.01 0.01 0.02 0.02 0.02 0.02 0.01 0.01
0.14 0.16 0.14 0.13 0.09 0.08 0.08 0.07 0.06 0.06 0.06 0.05 0.05 0.06 0.07 0.07 0.06 0.05 0.06 0.06 0.06 0.05 0.07 0.06 0.04 0.03 0.01 0.02 0.03 0.03 0.03 0.03 0.03 0.03 0.03 0.02 0.02 0.02
0.15 0.15 0.14 0.13 0.11 0.10 0.10 0.10 0.09 0.08 0.08 0.06 0.04 0.04 0.03 0.04 0.04 0.05 0.06 0.07 0.06 0.06 0.08 0.07 0.05 0.05 0.04 0.03 0.03 0.03 0.03 0.02 0.02 0.01 0.01 0.01 0.01 0.01
0.12 0.14 0.13 0.12 0.12 0.11 0.08 0.08 0.08 0.08 0.08 0.07 0.05 0.06 0.06 0.07 0.08 0.07 0.07 0.08 0.08 0.07 0.06 0.07 0.06 0.06 0.05 0.02 0.02 0.02 0.02 0.01 0.01 0.01 0.01 0.01 0.01 0.01
0.14 0.15 0.14 0.12 0.10 0.09 0.08 0.07 0.07 0.08 0.09 0.09 0.09 0.09 0.09 0.09 0.09 0.08 0.08 0.10 0.11 0.11 0.08 0.07 0.07 0.06 0.05 0.03 0.02 0.01 0.02 0.02 0.01 0.01 0.01 0.01 0.01 0.01
0.15 0.15 0.13 0.12 0.10 0.08 0.07 0.06 0.06 0.08 0.09 0.11 0.10 0.10 0.09 0.08 0.08 0.08 0.08 0.08 0.07 0.07 0.06 0.05 0.05 0.04 0.04 0.04 0.04 0.03 0.02 0.01 0.01 0.01 0.01 0.01 0.01 0.01
0.11 0.12 0.10 0.09 0.08 0.07 0.07 0.07 0.07 0.08 0.09 0.10 0.09 0.08 0.07 0.06 0.06 0.06 0.06 0.05 0.05 0.04 0.04 0.04 0.04 0.04 0.05 0.05 0.05 0.04 0.03 0.03 0.02 0.02 0.02 0.02 0.02 0.02
0.08 0.08 0.08 0.08 0.08 0.08 0.08 0.09 0.10 0.10 0.10 0.10 0.10 0.09 0.08 0.08 0.08 0.08 0.08 0.08 0.08 0.07 0.06 0.07 0.08 0.08 0.07 0.07 0.06 0.04 0.03 0.03 0.03 0.02 0.03 0.02 0.02 0.03
0.08 0.07 0.07 0.08 0.09 0.09 0.09 0.08 0.08 0.08 0.08 0.08 0.08 0.08 0.07 0.07 0.06 0.06 0.08 0.09 0.10 0.08 0.07 0.07 0.08 0.09 0.09 0.08 0.07 0.06 0.05 0.05 0.04 0.04 0.04 0.03 0.03 0.04
0.07 0.07 0.09 0.10 0.09 0.08 0.07 0.06 0.06 0.05 0.05 0.05 0.06 0.06 0.06 0.06 0.06 0.06 0.06 0.07 0.07 0.06 0.05 0.05 0.05 0.06 0.06 0.05 0.04 0.04 0.05 0.04 0.04 0.03 0.03 0.03 0.03 0.03
0.06 0.06 0.07 0.08 0.08 0.07 0.07 0.06 0.06 0.05 0.05 0.05 0.06 0.06 0.07 0.07 0.07 0.07 0.07 0.06 0.06 0.05 0.04 0.04 0.04 0.05 0.05 0.04 0.03 0.03 0.03 0.03 0.03 0.02 0.03 0.03 0.03 0.02
0.05 0.06 0.06 0.07 0.07 0.07 0.07 0.07 0.07 0.07 0.08 0.08 0.08 0.08 0.07 0.07 0.06 0.06 0.05 0.05 0.05 0.05 0.05 0.05 0.04 0.05 0.05 0.05 0.04 0.03 0.02 0.02 0.02 0.02 0.03 0.02 0.02 0.02
0.05 0.06 0.07 0.07 0.08 0.09 0.09 0.09 0.09 0.09 0.09 0.08 0.07 0.06 0.06 0.05 0.05 0.04 0.04 0.04 0.04 0.04 0.05 0.05 0.05 0.04 0.04 0.04 0.04 0.03 0.02 0.03 0.03 0.03 0.03 0.03 0.02 0.02
0.06 0.06 0.07 0.07 0.07 0.08 0.08 0.08 0.08 0.08 0.07 0.06 0.05 0.05 0.05 0.06 0.06 0.05 0.05 0.05 0.04 0.04 0.04 0.04 0.04 0.03 0.04 0.04 0.04 0.03 0.03 0.02 0.02 0.01 0.02 0.02 0.02 0.03
0.05 0.05 0.06 0.06 0.06 0.06 0.06 0.07 0.07 0.07 0.06 0.06 0.05 0.04 0.04 0.04 0.04 0.04 0.03 0.03 0.03 0.03 0.03 0.03 0.03 0.03 0.03 0.03 0.03 0.02 0.02 0.02 0.02 0.03 0.03 0.02 0.02 0.01
MSLP
1013.99 1014.38 1014.79 1015.21 1015.60 1015.94 1016.19 1016.35 1016.41 1016.39 1016.31 1016.18 1016.05 1015.93 1015.84 1015.81 1015.85 1015.96 1016.14 1016.39 1016.70 1017.04 1017.40 1017.76 1018.10 1018.40 1018.66 1018.87 1019.04 1019.18 1019.30 1019.40 1019.51 1019.63 1019.74 1019.85 1019.94 1020.00
1013.27 1013.62 1013.99 1014.38 1014.75 1015.09 1015.37 1015.59 1015.73 1015.81 1015.82 1015.80 1015.75 1015.69 1015.64 1015.62 1015.65 1015.72 1015.85 1016.03 1016.27 1016.56 1016.87 1017.20 1017.52 1017.83 1018.10 1018.35 1018.56 1018.75 1018.91 1019.06 1019.20 1019.34 1019.47 1019.58 1019.68 1019.75
1012.53 1012.84 1013.18 1013.53 1013.88 1014.22 1014.54 1014.82 1015.05 1015.24 1015.37 1015.47 1015.53 1015.56 1015.58 1015.60 1015.62 1015.66 1015.73 1015.84 1016.00 1016.20 1016.44 1016.70 1016.99 1017.28 1017.56 1017.83 1018.08 1018.31 1018.53 1018.73 1018.91 1019.09 1019.24 1019.37 1019.48 1019.55
1011.73 1012.01 1012.32 1012.66 1013.00 1013.36 1013.72 1014.06 1014.39 1014.69 1014.96 1015.19 1015.37 1015.50 1015.60 1015.66 1015.69 1015.71 1015.74 1015.77 1015.84 1015.95 1016.10 1016.29 1016.51 1016.77 1017.04 1017.33 1017.61 1017.89 1018.15 1018.41 1018.64 1018.85 1019.04 1019.19 1019.30 1019.38
1010.80 1011.09 1011.40 1011.74 1012.10 1012.50 1012.91 1013.33 1013.75 1014.16 1014.55 1014.90 1015.20 1015.43 1015.61 1015.72 1015.77 1015.78 1015.77 1015.75 1015.74 1015.76 1015.83 1015.94 1016.11 1016.32 1016.57 1016.86 1017.17 1017.48 1017.79 1018.09 1018.37 1018.61 1018.83 1018.99 1019.11 1019.18
1009.72 1010.04 1010.38 1010.76 1011.18 1011.63 1012.11 1012.61 1013.12 1013.62 1014.11 1014.56 1014.95 1015.27 1015.52 1015.68 1015.76 1015.78 1015.74 1015.69 1015.62 1015.58 1015.59 1015.64 1015.76 1015.93 1016.17 1016.45 1016.77 1017.10 1017.44 1017.77 1018.07 1018.35 1018.57 1018.74 1018.86 1018.92
1008.52 1008.89 1009.30 1009.75 1010.24 1010.76 1011.32 1011.89 1012.48 1013.06 1013.62 1014.13 1014.59 1014.97 1015.26 1015.47 1015.58 1015.62 1015.60 1015.53 1015.45 1015.39 1015.36 1015.38 1015.47 1015.62 1015.84 1016.11 1016.42 1016.76 1017.11 1017.44 1017.75 1018.02 1018.25 1018.41 1018.51 1018.55
1007.29 1007.72 1008.22 1008.76 1009.33 1009.94 1010.58 1011.22 1011.86 1012.48 1013.07 1013.62 1014.11 1014.52 1014.84 1015.08 1015.23 1015.30 1015.31 1015.27 1015.22 1015.17 1015.15 1015.17 1015.25 1015.39 1015.60 1015.86 1016.15 1016.47 1016.80 1017.11 1017.40 1017.64 1017.84 1017.97 1018.05 1018.07
1006.15 1006.66 1007.24 1007.87 1008.54 1009.24 1009.93 1010.63 1011.29 1011.93 1012.53 1013.07 1013.55 1013.96 1014.29 1014.55 1014.74 1014.86 1014.92 1014.94 1014.94 1014.95 1014.97 1015.02 1015.12 1015.26 1015.46 1015.69 1015.96 1016.24 1016.52 1016.78 1017.02 1017.21 1017.36 1017.45 1017.49 1017.49
1005.28 1005.85 1006.50 1007.21 1007.96 1008.72 1009.46 1010.18 1010.85 1011.47 1012.04 1012.55 1013.00 1013.38 1013.72 1013.99 1014.21 1014.38 1014.51 1014.61 1014.69 1014.77 1014.85 1014.96 1015.08 1015.24 1015.42 1015.63 1015.85 1016.06 1016.27 1016.46 1016.61 1016.73 1016.82 1016.86 1016.88 1016.86
1004.79 1005.39 1006.09 1006.85 1007.65 1008.45 1009.21 1009.93 1010.58 1011.16 1011.68 1012.14 1012.54 1012.89 1013.21 1013.49 1013.74 1013.97 1014.17 1014.35 1014.52 1014.68 1014.83 1014.99 1015.14 1015.31 1015.47 1015.63 1015.78 1015.92 1016.04 1016.14 1016.20 1016.24 1016.26 1016.26 1016.25 1016.23
1004.74 1005.34 1006.05 1006.82 1007.63 1008.43 1009.19 1009.88 1010.49 1011.03 1011.49 1011.89 1012.24 1012.55 1012.85 1013.14 1013.42 1013.69 1013.96 1014.21 1014.46 1014.69 1014.90 1015.09 1015.27 1015.42 1015.55 1015.66 1015.74 1015.79 1015.81 1015.81 1015.80 1015.76 1015.72 1015.68 1015.66 1015.65
1005.09 1005.65 1006.33 1007.08 1007.86 1008.63 1009.35 1010.00 1010.56 1011.04 1011.45 1011.79 1012.10 1012.39 1012.67 1012.96 1013.27 1013.58 1013.89 1014.21 1014.50 1014.78 1015.03 1015.24 1015.40 1015.53 1015.61 1015.66 1015.66 1015.63 1015.57 1015.48 1015.39 1015.30 1015.22 1015.17 1015.15 1015.17
1005.72 1006.22 1006.84 1007.53 1008.24 1008.95 1009.62 1010.21 1010.72 1011.15 1011.51 1011.82 1012.10 1012.37 1012.65 1012.94 1013.27 1013.60 1013.95 1014.29 1014.62 1014.91 1015.16 1015.36 1015.50 1015.58 1015.61 1015.58 1015.51 1015.41 1015.28 1015.14 1015.00 1014.88 1014.78 1014.74 1014.75 1014.81
1006.50 1006.92 1007.44 1008.04 1008.67 1009.30 1009.89 1010.42 1010.88 1011.27 1011.60 1011.89 1012.16 1012.43 1012.72 1013.02 1013.36 1013.71 1014.07 1014.42 1014.74 1015.02 1015.24 1015.40 1015.50 1015.53 1015.49 1015.40 1015.28 1015.12 1014.94 1014.77 1014.62 1014.50 1014.43 1014.41 1014.46 1014.58
1007.27 1007.59 1008.02 1008.51 1009.05 1009.59 1010.11 1010.58 1011.00 1011.36 1011.68 1011.96 1012.24 1012.51 1012.81 1013.13 1013.47 1013.82 1014.18 1014.51 1014.81 1015.05 1015.23 1015.34 1015.38 1015.35 1015.26 1015.12 1014.95 1014.77 1014.58 1014.41 1014.27 1014.18 1014.15 1014.19 1014.29 1014.46
1007.95 1008.18 1008.51 1008.90 1009.34 1009.80 1010.25 1010.67 1011.05 1011.39 1011.70 1011.99 1012.28 1012.57 1012.88 1013.21 1013.55 1013.90 1014.23 1014.54 1014.79 1014.99 1015.12 1015.17 1015.16 1015.07 1014.94 1014.77 1014.58 1014.39 1014.21 1014.07 1013.98 1013.94 1013.96 1014.06 1014.22 1014.43
1008.53 1008.69 1008.93 1009.24 1009.59 1009.97 1010.36 1010.73 1011.08 1011.41 1011.72 1012.01 1012.31 1012.61 1012.92 1013.25 1013.58 1013.90 1014.21 1014.48 1014.70 1014.85 1014.92 1014.93 1014.87 1014.75 1014.58 1014.40 1014.21 1014.03 1013.89 1013.79 1013.75 1013.77 1013.85 1014.00 1014.20 1014.45
1009.07 1009.18 1009.36 1009.60 1009.89 1010.21 1010.55 1010.88 1011.20 1011.50 1011.79 1012.07 1012.36 1012.65 1012.95 1013.26 1013.56 1013.86 1014.14 1014.37 1014.55 1014.66 1014.70 1014.67 1014.58 1014.44 1014.27 1014.08 1013.91 1013.76 1013.65 1013.60 1013.61 1013.68 1013.81 1014.00 1014.22 1014.47
1009.70 1009.77 1009.91 1010.11 1010.35 1010.63 1010.92 1011.21 1011.48 1011.75 1012.00 1012.25 1012.50 1012.75 1013.01 1013.28 1013.55 1013.81 1014.04 1014.24 1014.39 1014.47 1014.49 1014.45 1014.35 1014.21 1014.04 1013.87 1013.71 1013.59 1013.51 1013.50 1013.54 1013.64 1013.80 1014.01 1014.24 1014.47
1010.48 1010.55 1010.67 1010.85 1011.06 1011.30 1011.55 1011.79 1012.02 1012.23 1012.42 1012.60 1012.77 1012.96 1013.15 1013.35 1013.56 1013.77 1013.97 1014.13 1014.25 1014.33 1014.34 1014.30 1014.21 1014.08 1013.93 1013.78 1013.64 1013.54 1013.48 1013.48 1013.54 1013.65 1013.81 1014.00 1014.21 1014.41
1011.47 1011.54 1011.67 1011.84 1012.04 1012.25 1012.46 1012.65 1012.81 1012.93 1013.04 1013.12 1013.20 1013.28 1013.37 1013.49 1013.62 1013.77 1013.91 1014.05 1014.16 1014.23 1014.25 1014.23 1014.16 1014.06 1013.93 1013.80 1013.68 1013.58 1013.53 1013.53 1013.57 1013.67 1013.80 1013.95 1014.12 1014.28
1012.62 1012.72 1012.86 1013.04 1013.24 1013.43 1013.59 1013.71 1013.79 1013.82 1013.82 1013.78 1013.73 1013.69 1013.66 1013.67 1013.71 1013.79 1013.88 1013.99 1014.09 1014.17 1014.21 1014.22 1014.18 1014.11 1014.01 1013.90 1013.79 1013.69 1013.63 1013.61 1013.62 1013.68 1013.76 1013.87 1013.97 1014.07
Thickness
5746 5746 5745 5746 5747 5747 5746 5743 5735 5728 5732 5742 5747 5751 5750 5748 5745 5741 5739 5736 5733 5731 5728 5726 5724 5721 5719 5717 5715 5714 5712 5710 5709 5707 5705 5703 5702 5700
5745 5745 5744 5745 5745 5745 5744 5743 5741 5736 5732 5741 5744 5748 5748 5747 5743 5741 5738 5736 5734 5731 5729 5727 5724 5722 5720 5718 5716 5714 5712 5710 5708 5706 5704 5702 5701 5699
5744 5743 5742 5742 5742 5742 5742 5741 5740 5739 5733 5737 5743 5745 5744 5742 5740 5739 5737 5735 5733 5731 5729 5727 5725 5723 5720 5718 5715 5713 5711 5709 5707 5705 5703 5701 5699 5697
5741 5741 5740 5740 5738 5738 5738 5738 5738 5738 5735 5731 5735 5737 5738 5739 5737 5736 5735 5734 5733 5732 5730 5728 5725 5723 5720 5718 5715 5713 5710 5708 5705 5703 5701 5698 5696 5693
5740 5739 5739 5738 5736 5736 5736 5736 5736 5737 5735 5731 5730 5733 5734 5734 5732 5731 5732 5732 5732 5732 5729 5727 5724 5722 5719 5717 5714 5711 5708 5706 5703 5700 5698 5695 5692 5690
5740 5739 5738 5737 5736 5735 5733 5733 5733 5731 5731 5728 5726 5727 5727 5729 5727 5724 5723 5726 5727 5728 5726 5724 5721 5719 5717 5715 5712 5709 5706 5703 5700 5697 5694 5691 5688 5685
5738 5737 5738 5737 5737 5735 5733 5731 5729 5727 5725 5723 5721 5721 5721 5720 5720 5720 5718 5719 5721 5722 5721 5720 5718 5715 5712 5711 5708 5706 5703 5700 5697 5694 5690 5687 5683 5680
5735 5735 5735 5735 5733 5732 5731 5729 5727 5724 5721 5719 5717 5715 5716 5717 5717 5715 5712 5710 5708 5715 5713 5713 5714 5711 5709 5708 5706 5703 5700 5696 5692 5688 5685 5681 5677 5674
5733 5732 5732 5734 5731 5728 5727 5725 5724 5722 5720 5717 5713 5712 5711 5711 5710 5708 5706 5704 5703 5707 5705 5703 5705 5703 5704 5703 5701 5699 5695 5690 5686 5681 5677 5674 5671 5668
5731 5730 5728 5727 5726 5724 5722 5721 5719 5718 5717 5714 5712 5710 5709 5707 5705 5704 5702 5701 5701 5700 5699 5693 5695 5695 5697 5695 5693 5691 5687 5683 5678 5674 5670 5667 5663 5660
5726 5726 5725 5723 5721 5719 5717 5715 5713 5713 5713 5711 5709 5706 5703 5701 5699 5695 5693 5690 5688 5690 5691 5687 5687 5686 5686 5684 5683 5681 5678 5674 5670 5666 5662 5659 5655 5652
5720 5720 5719 5717 5715 5713 5711 5709 5705 5705 5704 5703 5700 5698 5696 5693 5691 5688 5685 5681 5679 5679 5681 5678 5677 5674 5672 5674 5672 5669 5666 5664 5660 5657 5653 5650 5646 5641
5714 5712 5711 5710 5707 5706 5704 5702 5699 5698 5696 5694 5692 5689 5687 5685 5683 5681 5678 5674 5671 5669 5671 5668 5665 5663 5658 5658 5659 5657 5654 5652 5649 5646 5643 5640 5636 5630
5705 5704 5702 5701 5699 5697 5695 5694 5692 5690 5688 5685 5682 5680 5678 5677 5675 5674 5671 5667 5664 5661 5659 5657 5653 5650 5646 5643 5643 5643 5642 5640 5638 5635 5633 5630 5626 5622
5696 5694 5693 5691 5689 5687 5685 5683 5682 5680 5677 5674 5672 5671 5671 5669 5668 5665 5662 5659 5655 5652 5650 5647 5643 5639 5635 5631 5629 5629 5627 5627 5626 5624 5622 5618 5615 5611
5685 5684 5683 5681 5679 5677 5676 5673 5671 5669 5667 5665 5663 5662 5661 5659 5656 5654 5650 5647 5643 5641 5639 5637 5634 5629 5624 5622 5618 5617 5615 5613 5612 5610 5608 5606 5603 5600
5677 5675 5674 5672 5669 5668 5666 5664 5661 5659 5656 5655 5653 5651 5649 5647 5644 5642 5638 5635 5631 5629 5626 5624 5623 5620 5617 5613 5609 5607 5605 5602 5600 5597 5594 5592 5591 5588
5668 5666 5663 5660 5658 5656 5654 5653 5650 5648 5646 5644 5641 5638 5636 5633 5631 5629 5626 5622 5618 5615 5612 5610 5608 5606 5604 5603 5600 5596 5593 5590 5588 5585 5582 5579 5577 5575
5655 5652 5649 5647 5645 5643 5641 5639 5637 5634 5633 5631 5629 5626 5622 5619 5616 5613 5610 5607 5604 5601 5599 5597 5594 5591 5588 5587 5588 5584 5580 5578 5575 5572 5570 5566 5563 5561
5640 5637 5635 5633 5630 5628 5626 5624 5622 5620 5618 5616 5614 5612 5609 5606 5603 5600 5597 5593 5590 5588 5586 5584 5581 5578 5574 5572 5571 5571 5568 5566 5563 5560 5558 5555 5552 5549
5624 5622 5619 5617 5614 5612 5610 5608 5606 5604 5602 5601 5599 5597 5594 5592 5589 5586 5583 5580 5577 5575 5573 5571 5568 5566 5563 5561 5559 5558 5557 5554 5551 5548 5546 5543 5540 5538
5609 5606 5603 5601 5598 5596 5594 5592 5590 5589 5587 5585 5584 5582 5579 5577 5574 5572 5569 5567 5564 5562 5560 5558 5557 5554 5551 5548 5546 5545 5544 5542 5540 5537 5534 5531 5528 5526
5593 5591 5588 5586 5583 5580 5577 5575 5573 5571 5569 5567 5566 5564 5562 5560 5559 5557 5555 5553 5551 5549 5547 5545 5544 5542 5539 5537 5535 5533 5532 5531 5529 5527 5524 5522 5519 5517